Location: Prague
(50.0830°N, 14.4670°E)
Time: 04:40:58
(UTC+02:00)

Tiangong - Pass Details

Date: 03 October 2021
Orbit: 382 x 385 km, 41.5° (Epoch: 15 October)

Event Time Altitude Azimuth Distance (km) Brightness Sun altitude
Exits shadow 05:28:40 17° 188° (S) 1,051 3.0 -16.2°
Maximum altitude 05:28:52 17° 183° (S) 1,048 3.1 -16.2°
Drops below altitude 10° 05:31:02 10° 139° (SE) 1,397 4.2 -15.9°
Sets 05:33:33 0° 119° (ESE) 2,249 5.7 -15.5°
